GXA12 KAPC-KSLI

Flight info

Callsign GXA12
Flight time 1h 4m
Altitude 35000
Route LIZRD5 OAK J1 FIM TANDY6
Aircraft A320/M-SDE3FGHIRWY/LB1

Departure

Time 2026-05-09 04:50
Airport Napa County Airport (KAPC)

Arrival

Time 2026-05-09 05:54
Airport Los Alamitos Army Air Field (KSLI)
Time Latitude Longitude Altitude Speed Heading
2026-05-09 04:30 38.21780 -122.27491 19 ft 0 kts 244°
2026-05-09 04:44 38.21778 -122.27495 20 ft 1 kts 244°
2026-05-09 04:44 38.21775 -122.27528 21 ft 6 kts 274°
2026-05-09 04:45 38.21798 -122.27567 20 ft 5 kts 328°
2026-05-09 04:45 38.21830 -122.27584 18 ft 5 kts 337°
2026-05-09 04:45 38.21878 -122.27610 18 ft 10 kts 336°
2026-05-09 04:45 38.21941 -122.27647 19 ft 9 kts 335°
2026-05-09 04:46 38.21986 -122.27675 21 ft 6 kts 334°
2026-05-09 04:46 38.22010 -122.27687 22 ft 2 kts 345°
2026-05-09 04:46 38.22032 -122.27679 23 ft 4 kts 20°
2026-05-09 04:46 38.22064 -122.27666 23 ft 6 kts 19°
2026-05-09 04:47 38.22109 -122.27644 24 ft 8 kts 20°
2026-05-09 04:47 38.22160 -122.27620 25 ft 7 kts 20°
2026-05-09 04:47 38.22199 -122.27626 26 ft 7 kts 335°
2026-05-09 04:47 38.22232 -122.27645 27 ft 4 kts 335°
2026-05-09 04:48 38.22253 -122.27658 28 ft 5 kts 334°
2026-05-09 04:48 38.22288 -122.27707 29 ft 9 kts 292°
2026-05-09 04:48 38.22303 -122.27773 29 ft 7 kts 285°
2026-05-09 04:48 38.22297 -122.27813 29 ft 3 kts 213°
2026-05-09 04:49 38.22287 -122.27817 29 ft 0 kts 199°
2026-05-09 04:49 38.22137 -122.27887 28 ft 63 kts 201°
2026-05-09 04:49 38.21491 -122.28196 26 ft 131 kts 200°
2026-05-09 04:50 38.20612 -122.28608 579 ft 134 kts 200°
2026-05-09 04:50 38.19660 -122.28879 1158 ft 148 kts 191°
2026-05-09 04:50 38.18550 -122.29048 1574 ft 178 kts 190°
2026-05-09 04:50 38.17203 -122.29267 1966 ft 215 kts 191°
2026-05-09 04:51 38.15622 -122.29559 2559 ft 244 kts 190°
2026-05-09 04:51 38.13837 -122.29905 3187 ft 269 kts 189°
2026-05-09 04:51 38.11965 -122.30255 4328 ft 275 kts 187°
2026-05-09 04:51 38.10045 -122.30267 5559 ft 278 kts 167°
2026-05-09 04:52 38.08275 -122.29297 6680 ft 285 kts 146°
2026-05-09 04:52 38.06697 -122.27769 7905 ft 287 kts 139°
2026-05-09 04:52 38.05191 -122.26070 9076 ft 292 kts 139°
2026-05-09 04:52 38.03632 -122.24386 10204 ft 298 kts 141°
2026-05-09 04:53 38.01938 -122.22697 10823 ft 322 kts 146°
2026-05-09 04:53 37.99898 -122.21294 11306 ft 346 kts 160°
2026-05-09 04:53 37.97529 -122.20492 11973 ft 358 kts 173°
2026-05-09 04:53 37.95006 -122.20368 12915 ft 363 kts 186°
2026-05-09 04:54 37.92470 -122.20585 13904 ft 368 kts 182°
2026-05-09 04:54 37.89910 -122.20144 14755 ft 377 kts 164°
2026-05-09 04:54 37.87549 -122.18635 15562 ft 386 kts 145°
2026-05-09 04:54 37.85436 -122.16574 16353 ft 391 kts 143°
2026-05-09 04:55 37.83277 -122.14421 17117 ft 396 kts 143°
2026-05-09 04:55 37.81107 -122.12243 17869 ft 401 kts 143°
2026-05-09 04:55 37.78895 -122.10020 18561 ft 407 kts 143°
2026-05-09 04:55 37.76663 -122.07784 19167 ft 412 kts 143°
2026-05-09 04:56 37.74403 -122.05533 19784 ft 416 kts 143°
2026-05-09 04:56 37.72105 -122.03258 20375 ft 421 kts 144°
2026-05-09 04:56 37.69780 -122.00964 20948 ft 426 kts 144°
2026-05-09 04:56 37.67456 -121.98674 21495 ft 431 kts 143°
2026-05-09 04:57 37.65073 -121.96326 22020 ft 435 kts 143°
2026-05-09 04:57 37.62676 -121.93966 22515 ft 439 kts 143°
2026-05-09 04:57 37.60262 -121.91583 22996 ft 443 kts 143°
2026-05-09 04:57 37.57823 -121.89174 23440 ft 446 kts 143°
2026-05-09 04:58 37.55369 -121.86751 23823 ft 450 kts 143°
2026-05-09 04:58 37.52894 -121.84315 24168 ft 453 kts 143°
2026-05-09 04:58 37.50402 -121.81865 24554 ft 456 kts 144°
2026-05-09 04:58 37.47884 -121.79390 24900 ft 459 kts 144°
2026-05-09 04:59 37.45357 -121.76909 25230 ft 462 kts 144°
2026-05-09 04:59 37.42845 -121.74445 25548 ft 464 kts 144°
2026-05-09 04:59 37.40280 -121.71934 25879 ft 467 kts 144°
2026-05-09 04:59 37.37706 -121.69416 26198 ft 470 kts 144°
2026-05-09 05:00 37.35117 -121.66883 26484 ft 472 kts 144°
2026-05-09 05:00 37.32506 -121.64322 26804 ft 475 kts 144°
2026-05-09 05:00 37.29912 -121.61782 27094 ft 478 kts 144°
2026-05-09 05:00 37.27278 -121.59211 27386 ft 480 kts 144°
2026-05-09 05:01 37.24631 -121.56631 27667 ft 482 kts 144°
2026-05-09 05:01 37.21978 -121.54052 27973 ft 484 kts 144°
2026-05-09 05:01 37.19298 -121.51453 28256 ft 487 kts 144°
2026-05-09 05:01 37.16613 -121.48848 28510 ft 489 kts 144°
2026-05-09 05:02 37.13915 -121.46227 28781 ft 492 kts 144°
2026-05-09 05:02 37.11201 -121.43591 29038 ft 494 kts 144°
2026-05-09 05:02 37.08510 -121.40979 29272 ft 496 kts 144°
2026-05-09 05:02 37.05742 -121.38297 29523 ft 498 kts 144°
2026-05-09 05:03 37.03030 -121.35672 29757 ft 500 kts 144°
2026-05-09 05:03 37.00273 -121.33007 29989 ft 501 kts 144°
2026-05-09 05:03 36.97493 -121.30322 30250 ft 502 kts 144°
2026-05-09 05:03 36.94718 -121.27642 30507 ft 502 kts 144°
2026-05-09 05:04 36.91952 -121.24973 30806 ft 501 kts 144°
2026-05-09 05:04 36.89226 -121.22345 31091 ft 500 kts 144°
2026-05-09 05:04 36.86459 -121.19681 31351 ft 500 kts 144°
2026-05-09 05:04 36.83697 -121.17025 31617 ft 500 kts 144°
2026-05-09 05:05 36.80940 -121.14379 31897 ft 499 kts 144°
2026-05-09 05:05 36.78182 -121.11738 32157 ft 499 kts 144°
2026-05-09 05:05 36.75426 -121.09104 32452 ft 497 kts 144°
2026-05-09 05:05 36.72707 -121.06504 32717 ft 497 kts 144°
2026-05-09 05:06 36.69969 -121.03884 32984 ft 496 kts 144°
2026-05-09 05:06 36.67234 -121.01265 33269 ft 496 kts 144°
2026-05-09 05:06 36.64498 -120.98647 33534 ft 495 kts 144°
2026-05-09 05:06 36.61766 -120.96037 33757 ft 495 kts 144°
2026-05-09 05:07 36.59036 -120.93430 34039 ft 494 kts 144°
2026-05-09 05:07 36.56311 -120.90832 34286 ft 493 kts 144°
2026-05-09 05:07 36.53585 -120.88242 34513 ft 492 kts 144°
2026-05-09 05:07 36.50886 -120.85682 34720 ft 492 kts 144°
2026-05-09 05:08 36.48162 -120.83100 34946 ft 492 kts 144°
2026-05-09 05:08 36.42706 -120.77923 35066 ft 491 kts 144°
2026-05-09 05:09 36.37302 -120.72789 35048 ft 491 kts 144°
2026-05-09 05:09 36.31853 -120.67643 35056 ft 491 kts 144°
2026-05-09 05:10 36.26416 -120.62535 35037 ft 490 kts 144°
2026-05-09 05:10 36.20975 -120.57412 35045 ft 490 kts 144°
2026-05-09 05:11 36.15548 -120.52302 35055 ft 490 kts 144°
2026-05-09 05:11 36.10114 -120.47206 35035 ft 490 kts 144°
2026-05-09 05:12 36.04675 -120.42114 35048 ft 490 kts 144°
2026-05-09 05:12 35.99275 -120.37068 35043 ft 490 kts 144°
2026-05-09 05:13 35.93837 -120.31998 35039 ft 490 kts 143°
2026-05-09 05:13 35.88394 -120.26921 35038 ft 489 kts 143°
2026-05-09 05:14 35.82959 -120.21853 35047 ft 489 kts 143°
2026-05-09 05:14 35.78439 -120.17654 35046 ft 489 kts 143°
2026-05-09 05:15 35.72117 -120.11796 35032 ft 488 kts 143°
2026-05-09 05:15 35.66688 -120.06777 35045 ft 488 kts 143°
2026-05-09 05:16 35.62142 -120.02573 35028 ft 488 kts 143°
2026-05-09 05:16 35.56745 -119.97598 35041 ft 487 kts 143°
2026-05-09 05:17 35.51319 -119.92604 35031 ft 487 kts 143°
2026-05-09 05:17 35.45887 -119.87619 35024 ft 487 kts 143°
2026-05-09 05:18 35.40461 -119.82648 35013 ft 486 kts 143°
2026-05-09 05:18 35.35076 -119.77705 35029 ft 486 kts 143°
2026-05-09 05:19 35.29651 -119.72742 35037 ft 486 kts 143°
2026-05-09 05:19 35.24235 -119.67795 35015 ft 485 kts 142°
2026-05-09 05:20 35.18815 -119.62859 35033 ft 485 kts 143°
2026-05-09 05:20 35.13397 -119.57929 35028 ft 484 kts 143°
2026-05-09 05:21 35.08019 -119.53047 35049 ft 484 kts 143°
2026-05-09 05:21 35.02613 -119.48144 35048 ft 483 kts 142°
2026-05-09 05:22 34.97233 -119.43272 35043 ft 482 kts 142°
2026-05-09 05:22 34.91838 -119.38407 35040 ft 482 kts 142°
2026-05-09 05:23 34.86431 -119.33535 35048 ft 481 kts 142°
2026-05-09 05:23 34.81080 -119.28701 35051 ft 481 kts 142°
2026-05-09 05:24 34.75705 -119.23862 34131 ft 483 kts 142°
2026-05-09 05:24 34.72960 -119.21399 32842 ft 493 kts 142°
2026-05-09 05:24 34.70178 -119.18911 31595 ft 500 kts 142°
2026-05-09 05:24 34.67371 -119.16402 30570 ft 502 kts 142°
2026-05-09 05:25 34.64569 -119.13901 29865 ft 496 kts 142°
2026-05-09 05:25 34.61809 -119.11436 29138 ft 490 kts 142°
2026-05-09 05:25 34.56384 -119.06577 27748 ft 479 kts 143°
2026-05-09 05:26 34.53751 -119.04226 27091 ft 474 kts 143°
2026-05-09 05:26 34.51128 -119.01888 26411 ft 457 kts 143°
2026-05-09 05:26 34.48602 -118.99635 25796 ft 448 kts 143°
2026-05-09 05:26 34.46097 -118.97402 25156 ft 446 kts 143°
2026-05-09 05:27 34.43594 -118.95172 24531 ft 443 kts 143°
2026-05-09 05:27 34.41117 -118.92967 23919 ft 441 kts 143°
2026-05-09 05:27 34.38654 -118.90778 23282 ft 438 kts 143°
2026-05-09 05:27 34.36152 -118.88782 22696 ft 433 kts 152°
2026-05-09 05:28 34.33416 -118.87311 22193 ft 427 kts 161°
2026-05-09 05:28 34.30593 -118.86261 21699 ft 422 kts 163°
2026-05-09 05:28 34.27793 -118.85237 21226 ft 417 kts 163°
2026-05-09 05:28 34.25026 -118.84220 20742 ft 413 kts 163°
2026-05-09 05:29 34.22285 -118.83210 20275 ft 410 kts 163°
2026-05-09 05:29 34.19600 -118.82222 19802 ft 407 kts 163°
2026-05-09 05:29 34.16888 -118.81228 19322 ft 404 kts 163°
2026-05-09 05:29 34.14196 -118.80239 18841 ft 402 kts 163°
2026-05-09 05:30 34.11523 -118.79257 18342 ft 400 kts 163°
2026-05-09 05:30 34.08858 -118.78281 17765 ft 399 kts 163°
2026-05-09 05:30 34.06214 -118.77311 17262 ft 396 kts 163°
2026-05-09 05:30 34.03579 -118.76345 16759 ft 393 kts 163°
2026-05-09 05:31 34.00995 -118.75398 16258 ft 390 kts 163°
2026-05-09 05:31 33.98405 -118.74450 15755 ft 388 kts 163°
2026-05-09 05:31 33.95822 -118.73511 15252 ft 385 kts 163°
2026-05-09 05:31 33.93258 -118.72580 14747 ft 383 kts 163°
2026-05-09 05:32 33.90707 -118.71650 14249 ft 381 kts 163°
2026-05-09 05:32 33.88194 -118.70734 14027 ft 371 kts 163°
2026-05-09 05:32 33.85743 -118.69841 13987 ft 366 kts 163°
2026-05-09 05:32 33.83323 -118.68960 14001 ft 366 kts 163°
2026-05-09 05:33 33.80883 -118.68072 13998 ft 366 kts 163°
2026-05-09 05:33 33.78441 -118.67187 13998 ft 366 kts 163°
2026-05-09 05:33 33.75995 -118.66300 13992 ft 366 kts 164°
2026-05-09 05:33 33.73554 -118.65416 13995 ft 366 kts 164°
2026-05-09 05:34 33.71110 -118.64543 13995 ft 366 kts 164°
2026-05-09 05:34 33.68690 -118.63690 13998 ft 366 kts 164°
2026-05-09 05:34 33.66246 -118.62831 13999 ft 366 kts 164°
2026-05-09 05:34 33.63797 -118.61969 14001 ft 365 kts 164°
2026-05-09 05:35 33.61403 -118.61126 13928 ft 351 kts 164°
2026-05-09 05:35 33.59201 -118.60066 13796 ft 329 kts 151°
2026-05-09 05:35 33.57328 -118.58600 13443 ft 316 kts 146°
2026-05-09 05:35 33.55554 -118.57109 13160 ft 313 kts 145°
2026-05-09 05:36 33.53776 -118.55613 12832 ft 310 kts 145°
2026-05-09 05:36 33.52011 -118.54128 12492 ft 308 kts 145°
2026-05-09 05:36 33.50256 -118.52652 12149 ft 307 kts 146°
2026-05-09 05:36 33.48510 -118.51188 11800 ft 305 kts 146°
2026-05-09 05:37 33.46775 -118.49739 11456 ft 304 kts 146°
2026-05-09 05:37 33.45063 -118.48310 11107 ft 302 kts 146°
2026-05-09 05:37 33.43334 -118.46867 10761 ft 301 kts 146°
2026-05-09 05:37 33.41614 -118.45431 10417 ft 300 kts 145°
2026-05-09 05:38 33.40146 -118.43728 10103 ft 298 kts 122°
2026-05-09 05:38 33.39452 -118.41421 9733 ft 296 kts 95°
2026-05-09 05:38 33.39716 -118.38997 9312 ft 295 kts 67°
2026-05-09 05:38 33.40808 -118.36933 8883 ft 294 kts 51°
2026-05-09 05:39 33.42075 -118.35011 8508 ft 293 kts 51°
2026-05-09 05:39 33.43385 -118.33151 8125 ft 290 kts 41°
2026-05-09 05:39 33.44993 -118.31749 7749 ft 288 kts 32°
2026-05-09 05:39 33.46684 -118.30464 7354 ft 287 kts 31°
2026-05-09 05:40 33.48377 -118.29192 6973 ft 286 kts 31°
2026-05-09 05:40 33.50054 -118.27929 6595 ft 284 kts 31°
2026-05-09 05:40 33.51723 -118.26668 6203 ft 283 kts 31°
2026-05-09 05:40 33.53380 -118.25411 5809 ft 281 kts 31°
2026-05-09 05:41 33.55021 -118.24160 5420 ft 279 kts 31°
2026-05-09 05:41 33.56648 -118.22915 5037 ft 276 kts 31°
2026-05-09 05:41 33.58261 -118.21676 4653 ft 274 kts 31°
2026-05-09 05:41 33.59865 -118.20457 4266 ft 272 kts 31°
2026-05-09 05:42 33.61459 -118.19260 4004 ft 269 kts 31°
2026-05-09 05:42 33.63056 -118.18069 3985 ft 270 kts 31°
2026-05-09 05:42 33.64638 -118.16891 3981 ft 271 kts 31°
2026-05-09 05:42 33.66239 -118.15698 3977 ft 271 kts 31°
2026-05-09 05:43 33.67847 -118.14499 3974 ft 271 kts 31°
2026-05-09 05:43 33.69451 -118.13304 3974 ft 271 kts 31°
2026-05-09 05:43 33.71053 -118.12110 3993 ft 271 kts 31°
2026-05-09 05:43 33.72654 -118.10916 3994 ft 271 kts 31°
2026-05-09 05:44 33.74250 -118.09694 3981 ft 271 kts 34°
2026-05-09 05:44 33.75748 -118.08391 3646 ft 268 kts 36°
2026-05-09 05:44 33.77246 -118.07060 3234 ft 267 kts 36°
2026-05-09 05:44 33.78746 -118.05746 2977 ft 264 kts 36°
2026-05-09 05:45 33.80246 -118.04446 2972 ft 265 kts 36°
2026-05-09 05:45 33.81750 -118.03147 2972 ft 266 kts 36°
2026-05-09 05:45 33.83206 -118.01889 2967 ft 252 kts 36°
2026-05-09 05:45 33.84583 -118.00700 2996 ft 237 kts 36°
2026-05-09 05:46 33.85920 -117.99547 2999 ft 235 kts 36°
2026-05-09 05:46 33.87248 -117.98401 3000 ft 234 kts 36°
2026-05-09 05:46 33.88567 -117.97258 3000 ft 233 kts 36°
2026-05-09 05:46 33.89883 -117.96118 3000 ft 233 kts 36°
2026-05-09 05:47 33.91199 -117.94978 3000 ft 233 kts 36°
2026-05-09 05:47 33.92502 -117.93847 3000 ft 233 kts 36°
2026-05-09 05:47 33.93790 -117.92731 2999 ft 225 kts 36°
2026-05-09 05:47 33.95055 -117.91634 2998 ft 223 kts 36°
2026-05-09 05:48 33.96307 -117.90537 2996 ft 222 kts 40°
2026-05-09 05:48 33.97197 -117.89057 2996 ft 221 kts 73°
2026-05-09 05:48 33.97271 -117.87231 2994 ft 220 kts 105°
2026-05-09 05:48 33.96662 -117.85537 2970 ft 221 kts 121°
2026-05-09 05:49 33.95602 -117.84267 2990 ft 220 kts 154°
2026-05-09 05:49 33.94147 -117.83937 2985 ft 207 kts 189°
2026-05-09 05:49 33.92787 -117.84382 2993 ft 198 kts 200°
2026-05-09 05:49 33.91511 -117.84961 2995 ft 195 kts 204°
2026-05-09 05:50 33.90361 -117.85825 2925 ft 193 kts 221°
2026-05-09 05:50 33.89517 -117.87038 2748 ft 187 kts 234°
2026-05-09 05:50 33.88794 -117.88294 2666 ft 193 kts 236°
2026-05-09 05:50 33.88048 -117.89602 2513 ft 183 kts 234°
2026-05-09 05:51 33.87322 -117.90832 2276 ft 177 kts 233°
2026-05-09 05:51 33.86626 -117.91966 2176 ft 159 kts 233°
2026-05-09 05:51 33.85993 -117.93012 1980 ft 151 kts 234°
2026-05-09 05:51 33.85400 -117.94024 1797 ft 147 kts 235°
2026-05-09 05:52 33.84811 -117.95023 1676 ft 147 kts 234°
2026-05-09 05:52 33.84219 -117.96020 1568 ft 147 kts 234°
2026-05-09 05:52 33.83636 -117.97026 1409 ft 145 kts 235°
2026-05-09 05:52 33.83058 -117.98000 1277 ft 144 kts 234°
2026-05-09 05:53 33.82471 -117.98971 1077 ft 143 kts 234°
2026-05-09 05:53 33.81909 -117.99948 913 ft 142 kts 237°
2026-05-09 05:53 33.81353 -118.00932 740 ft 141 kts 236°
2026-05-09 05:53 33.80791 -118.01898 508 ft 140 kts 235°
2026-05-09 05:54 33.80222 -118.02850 275 ft 139 kts 236°
2026-05-09 05:54 33.79679 -118.03792 84 ft 138 kts 236°
2026-05-09 05:54 33.79171 -118.04666 33 ft 103 kts 234°
2026-05-09 05:54 33.78921 -118.05096 30 ft 39 kts 236°
2026-05-09 05:55 33.78786 -118.05326 34 ft 23 kts 234°
2026-05-09 05:55 33.78743 -118.05443 34 ft 12 kts 283°
2026-05-09 05:55 33.78802 -118.05509 35 ft 11 kts 325°
2026-05-09 05:55 33.78851 -118.05550 37 ft 8 kts 325°
2026-05-09 05:56 33.78907 -118.05595 38 ft 12 kts 334°
2026-05-09 05:56 33.78990 -118.05600 37 ft 12 kts
2026-05-09 05:56 33.79079 -118.05600 34 ft 13 kts
2026-05-09 05:56 33.79142 -118.05600 33 ft 14 kts
2026-05-09 05:57 33.79216 -118.05597 32 ft 7 kts
2026-05-09 05:57 33.79249 -118.05580 32 ft 2 kts 41°
2026-05-09 05:57 33.79252 -118.05570 33 ft 1 kts 69°
2026-05-09 05:57 33.79252 -118.05564 33 ft 1 kts 87°
2026-05-09 05:58 33.79252 -118.05560 33 ft 0 kts 90°